Flag for Norway Weather past 2 weeks in Stjørdal, Norway

Now
55 °F

Rain showers. Overcast.


Feels Like: 51 °F
Forecast: 48 / 61 °F
Wind: 12 mph from West

Location: Trondheim / Vaernes

Current Time: Aug 27, 2014 at 5:53:40 PM

Latest Report: Aug 27, 2014 at 4:00 PM


Visibility: 3 mi

Pressure: 30.01 "Hg

Humidity: 91%

Dew point: 52 °F

Location of StjørdalLocation

Historic Weather in Stjørdal — Graph

°F

Stjørdal temperature yesterday

Maximum temperature yesterday: 63 °F (at 4:00 PM)
Minimum temperature yesterday: 49 °F (at 2:00 AM)
Average temperature yesterday: 56 °F

Past Weeks' High & Low Weather Summary

 TemperatureHumidityPressure
High71 °F (Aug 12, 6:00 PM)98% (Aug 14, 4:00 AM)30.01 "Hg (Aug 14, 4:00 AM)
Low47 °F (Aug 16, 5:00 AM)41% (Aug 12, 4:00 PM)29.15 "Hg (Aug 18, 8:00 PM)
Average56 °F81%29.59 "Hg
* Reported Aug 12 4:00 PM — Aug 27 4:00 PM, Stjørdal, Weather by CustomWeather, © 2014

Note: Actual official high and low records may vary slightly from our data, if they occured in-between our weather recording intervals... More about our weather records

Advertising

Stjørdal weather history for previous 24 hours

 ConditionsComfort  
Time TempWeatherWind HumidityBarometerVisibility
4:00 PM
Aug 27
55 °FRain showers. Overcast.12 mph91%30.01 "Hg3 mi
3:00 PM56 °FOvercast.12 mph85%29.99 "Hg19 mi
2:00 PM54 °FRain showers. Overcast.9 mph93%29.99 "Hg11 mi
1:00 PM55 °FScattered clouds.6 mph91%29.99 "Hg7 mi
12:00 PM54 °FRain showers. Partly sunny.5 mph91%30.00 "Hg5 mi
11:00 AM54 °FOvercast.7 mph91%29.99 "Hg17 mi
10:00 AM56 °FRain showers. Overcast.5 mph84%29.99 "Hg28 mi
9:00 AM55 °FOvercast.5 mph83%29.98 "Hg19 mi
8:00 AM51 °FScattered clouds.2 mph96%29.98 "Hg12 mi
7:00 AM49 °FOvercast.2 mph95%29.97 "Hg14 mi
6:00 AM49 °FCool.2 mph95%29.96 "HgN/A
4:00 AM49 °FOvercast.1 mph94%29.97 "Hg22 mi
3:00 AM48 °FOvercast.2 mph95%29.97 "Hg16 mi
2:00 AM48 °FOvercast.2 mph96%29.96 "Hg13 mi
1:00 AM48 °FPassing clouds.2 mph95%29.95 "Hg14 mi
12:00 AM53 °FClear.2 mph84%29.94 "Hg31 mi
11:00 PM
Aug 26
55 °FClear.2 mph79%29.93 "Hg31 mi
10:00 PM55 °FClear.1 mph79%29.92 "Hg31 mi
9:00 PM56 °FClear.2 mph79%29.90 "Hg31 mi
8:00 PM58 °FSunny.1 mph82%29.89 "Hg25 mi
7:00 PM58 °FSunny.1 mph79%29.88 "Hg22 mi
6:00 PM58 °FRain showers. Passing clouds.2 mph84%29.88 "Hg22 mi
5:00 PM57 °FRain showers. Light fog.2 mph78%29.89 "Hg4 mi
Weather by CustomWeather, © 2014

See weather overviewHow to use our weather pages